Regional Weather Roundup
Issued by NWS

Home | Current Version | Previous Version | Graphics & Text | Print | Product List | Glossary On
Versions: 1 2 3 4 5 6 7 8 9 10 11 12 13 14 15 16 17 18 19 20 21 22 23 24 25 26 27 28 29 30 31 32 33 34 35 36 37 38 39 40 41 42 43 44 45 46 47 48 49 50
290
ASUS43 KIND 232159
RWRIN

WEATHER ROUNDUP FOR INDIANA
NATIONAL WEATHER SERVICE INDIANAPOLIS IN
600 PM EDT SAT JUL 23 2016

NOTE: "FAIR" INDICATES FEW OR NO CLOUDS BELOW 12,000 FEET WITH NO
SIGNIFICANT WEATHER AND/OR OBSTRUCTIONS TO VISIBILITY.

* - STATION DOES NOT REPORT WEATHER SUCH AS PRECIPITATION OR FOG.

+ - STATION NOT QUALITY CONTROLLED BY THE NATIONAL WEATHER SERVICE.
    USE DATA WITH CAUTION...ESPECIALLY DEWPOINT AND RELATIVE
    HUMIDITY OBSERVATIONS.

INZ001>003-010>013-019-020-232300-
NORTHWEST INDIANA

CITY           SKY/WX    TMP DP  RH WIND       PRES   REMARKS
GARY /AIRPORT/ PTSUNNY   90 N/A N/A S7        29.94S
KNOX *+        CLOUDY    88  68  51 SW5       29.94F
MONTICELLO +   CLOUDY    89  72  55 SW6       29.94F HX  96
RENSSELAER +   MOSUNNY   88  79  74 S3        29.95S HX 102

$$

LMZ046-743>745-232300-
SOUTHERN LAKE MICHIGAN

STATION/POSITION TIME  TEMP    WIND        PRES    WAVE
                       AIR SEA DIR/SP/G            HT
                 (UTC) (F)     (DEG/KT/KT) (MB)    (FT)
BURNS HARBOR     2100   83      80/  7/  9 1014.2F
MICHIGAN CITY    2100   80      10/  8/  9   N/A
5NW MICH CITY    2100   80 79   40/  6/  8   N/A     1

$$

INZ004-005-014>016-021>024-232300-
NORTH CENTRAL INDIANA

CITY           SKY/WX    TMP DP  RH WIND       PRES   REMARKS
ELKHART        CLOUDY    90  77  66 E3        29.96F HX 102
SOUTH BEND     PTSUNNY   90  75  61 SW5       29.96S HX 100
WARSAW +       CLOUDY    88  73  62 SW3       29.96S HX  96

$$

INZ006>009-017-018-025>027-232300-
NORTHEAST INDIANA

CITY           SKY/WX    TMP DP  RH WIND       PRES   REMARKS
ANGOLA *+        N/A     91  86  84 CALM      29.97F HX 122
FORT WAYNE     PTSUNNY   90  73  57 SW5       29.96F HX  98

$$

INZ028-029-035-036-043>045-051>053-232300-
WEST CENTRAL INDIANA

CITY           SKY/WX    TMP DP  RH WIND       PRES   REMARKS
CRAWFORDSVL +  CLOUDY    86  76  73 CALM      29.96F HX  96
LAFAYETTE      MOSUNNY   87  76  69 VRB6      29.94F HX  97
TERRE HAUTE    MOSUNNY   89  74  60 SE5       29.95F HX  98

$$

INZ030>032-037>040-046>048-054>057-064-065-232300-
CENTRAL INDIANA

CITY           SKY/WX    TMP DP  RH WIND       PRES   REMARKS
COLUMBUS       MOSUNNY   90  75  62 SE3       29.97F HX 100
FRANKFORT +    CLOUDY    91  75  59 W3        29.98F HX 102
INDIANAPOLIS   PTSUNNY   89  72  56 SW7       29.96F HX  96
-EAGLE CREEK   SUNNY     91  72  53 SW5       29.95F HX  98
KOKOMO *+      CLOUDY    88  73  62 S7        29.96F HX  96
SHELBYVILLE    SUNNY     89  74  60 S8        29.96F HX  98
ZIONSVILLE +   MOSUNNY   87  74  65 W3        29.97F

$$

INZ033-034-041-042-049-050-058-059-232300-
EAST CENTRAL INDIANA

CITY           SKY/WX    TMP DP  RH WIND       PRES   REMARKS
MUNCIE         MOSUNNY   91  71  51 NW8       29.97F HX  97

$$

INZ060-061-067>069-081>083-085>088-232300-
SOUTHWEST INDIANA

CITY           SKY/WX    TMP DP  RH WIND       PRES   REMARKS
EVANSVILLE     MOSUNNY   91  76  61 NE5       29.93F HX 103
HUNTINGBURG *+ SUNNY     90  75  62 CALM      29.95F HX 100

$$

INZ062-063-066-070>080-084-089>092-232300-
SOUTH CENTRAL AND SOUTHEAST INDIANA

CITY           SKY/WX    TMP DP  RH WIND       PRES   REMARKS
BLOOMINGTON    MOSUNNY   87  77  72 CALM      29.97F HX  99
MADISON *+     SUNNY     90  70  51 CALM      29.99F HX  95
SEYMOUR +      SUNNY     91  73  55 CALM      29.96F HX 100

$$





USA.gov is the U.S. government's official web portal to all federal, state and local government web resources and services.